Location: Seale
(32.2974°N, 85.1688°W)
Time: 22:16:33
(UTC+00:00)

X-37B - Pass Details

Date: 28 January 2021
Orbit: 383 x 391 km, 45.0° (Epoch: 10 February)

Event Time Altitude Azimuth Distance (km) Brightness Sun altitude
Rises 00:53:37 0° 315° (NW) 2,274 5.0 -22.0°
Reaches altitude 10° 00:56:10 10° 337° (NNW) 1,419 3.6 -22.5°
Enters shadow 00:56:19 11° 338° (NNW) 1,380 3.5 -22.6°
